TimeCDT,TemperatureF,Dew PointF,Humidity,Sea Level PressureIn,VisibilityMPH,Wind Direction,Wind SpeedMPH,Gust SpeedMPH,PrecipitationIn,Events,Conditions,WindDirDegrees,DateUTC
12:15 AM,78.8,60.8,54,30.14,10.0,SE,8.1,-,N/A,,Scattered Clouds,140,2013-07-25 05:15:00
12:35 AM,78.8,62.6,57,30.16,10.0,SE,9.2,-,N/A,,Mostly Cloudy,140,2013-07-25 05:35:00
12:55 AM,78.8,62.6,57,30.19,10.0,SW,16.1,-,N/A,,Mostly Cloudy,220,2013-07-25 05:55:00
1:15 AM,78.8,60.8,54,30.19,10.0,WSW,23.0,29.9,N/A,,Mostly Cloudy,240,2013-07-25 06:15:00
1:35 AM,73.4,57.2,57,30.20,10.0,West,27.6,32.2,N/A,,Mostly Cloudy,260,2013-07-25 06:35:00
1:55 AM,71.6,57.2,60,30.18,10.0,West,19.6,-,N/A,,Mostly Cloudy,260,2013-07-25 06:55:00
2:15 AM,71.6,59.0,64,30.19,10.0,WSW,20.7,25.3,N/A,,Partly Cloudy,250,2013-07-25 07:15:00
2:35 AM,71.6,59.0,64,30.18,10.0,West,17.3,21.9,N/A,Thunderstorm,Mostly Cloudy,270,2013-07-25 07:35:00
2:55 AM,69.8,57.2,64,30.16,10.0,WNW,19.6,-,N/A,,Mostly Cloudy,300,2013-07-25 07:55:00
3:15 AM,68.0,59.0,73,30.14,10.0,NW,15.0,-,0.02,,Overcast,310,2013-07-25 08:15:00
3:35 AM,68.0,59.0,73,30.13,10.0,WNW,16.1,-,0.03,,Overcast,290,2013-07-25 08:35:00
3:55 AM,69.8,59.0,68,30.11,10.0,West,11.5,-,0.03,,Scattered Clouds,260,2013-07-25 08:55:00
4:15 AM,69.8,59.0,68,30.11,10.0,West,12.7,-,N/A,,Mostly Cloudy,260,2013-07-25 09:15:00
4:35 AM,69.8,59.0,68,30.11,10.0,WSW,9.2,-,N/A,,Partly Cloudy,250,2013-07-25 09:35:00
4:55 AM,69.8,60.8,73,30.11,10.0,SW,4.6,-,N/A,,Scattered Clouds,220,2013-07-25 09:55:00
5:15 AM,69.8,60.8,73,30.12,10.0,SW,9.2,-,N/A,,Mostly Cloudy,220,2013-07-25 10:15:00
5:35 AM,69.8,60.8,73,30.11,10.0,South,15.0,-,N/A,,Scattered Clouds,180,2013-07-25 10:35:00
5:55 AM,69.8,60.8,73,30.10,10.0,SSW,11.5,-,N/A,,Clear,200,2013-07-25 10:55:00
6:15 AM,69.8,60.8,73,30.09,10.0,South,10.4,-,N/A,,Clear,190,2013-07-25 11:15:00
6:35 AM,69.8,60.8,73,30.09,10.0,South,11.5,-,N/A,,Partly Cloudy,180,2013-07-25 11:35:00
6:55 AM,69.8,60.8,73,30.09,10.0,South,12.7,-,N/A,,Partly Cloudy,170,2013-07-25 11:55:00
7:15 AM,69.8,60.8,73,30.08,10.0,SSE,11.5,-,N/A,,Scattered Clouds,160,2013-07-25 12:15:00
7:35 AM,69.8,62.6,78,30.09,10.0,SSW,10.4,-,N/A,,Partly Cloudy,200,2013-07-25 12:35:00
7:55 AM,69.8,62.6,78,30.09,10.0,South,9.2,-,N/A,,Partly Cloudy,190,2013-07-25 12:55:00
8:15 AM,69.8,62.6,78,30.10,10.0,South,10.4,-,N/A,,Partly Cloudy,180,2013-07-25 13:15:00
8:35 AM,71.6,62.6,73,30.11,10.0,South,10.4,-,N/A,,Scattered Clouds,180,2013-07-25 13:35:00
8:55 AM,71.6,62.6,73,30.11,10.0,South,11.5,-,N/A,,Scattered Clouds,190,2013-07-25 13:55:00
9:15 AM,73.4,62.6,69,30.12,10.0,SSW,12.7,-,N/A,,Clear,200,2013-07-25 14:15:00
9:35 AM,75.2,62.6,65,30.11,10.0,SSW,12.7,-,N/A,,Partly Cloudy,200,2013-07-25 14:35:00
9:55 AM,75.2,60.8,61,30.11,10.0,South,15.0,-,N/A,,Clear,190,2013-07-25 14:55:00
10:15 AM,75.2,60.8,61,30.11,10.0,SSW,16.1,-,N/A,,Partly Cloudy,200,2013-07-25 15:15:00
10:35 AM,75.2,60.8,61,30.12,10.0,SSW,18.4,23.0,N/A,,Scattered Clouds,200,2013-07-25 15:35:00
10:55 AM,75.2,60.8,61,30.12,10.0,SSW,21.9,26.5,N/A,,Scattered Clouds,200,2013-07-25 15:55:00
11:15 AM,75.2,60.8,61,30.13,10.0,SSW,19.6,25.3,N/A,,Partly Cloudy,200,2013-07-25 16:15:00
11:35 AM,75.2,60.8,61,30.12,10.0,SSW,18.4,-,N/A,,Clear,200,2013-07-25 16:35:00
11:55 AM,78.8,60.8,54,30.12,10.0,SSW,20.7,25.3,N/A,,Partly Cloudy,200,2013-07-25 16:55:00
12:15 PM,80.6,60.8,51,30.12,10.0,SSW,21.9,27.6,N/A,,Partly Cloudy,200,2013-07-25 17:15:00
12:35 PM,80.6,60.8,51,30.10,10.0,SSW,20.7,27.6,N/A,,Clear,210,2013-07-25 17:35:00
12:55 PM,82.4,62.6,51,30.11,10.0,SSW,24.2,27.6,N/A,,Clear,200,2013-07-25 17:55:00
1:15 PM,80.6,60.8,51,30.10,10.0,South,24.2,27.6,N/A,,Partly Cloudy,190,2013-07-25 18:15:00
1:35 PM,80.6,60.8,51,30.10,10.0,SSW,21.9,27.6,N/A,,Partly Cloudy,210,2013-07-25 18:35:00
1:55 PM,82.4,60.8,48,30.09,10.0,South,21.9,-,N/A,,Clear,190,2013-07-25 18:55:00
2:15 PM,86.0,62.6,45,30.08,10.0,SSW,24.2,31.1,N/A,,Clear,200,2013-07-25 19:15:00
2:35 PM,87.8,62.6,43,30.07,10.0,South,25.3,32.2,N/A,,Clear,190,2013-07-25 19:35:00
2:55 PM,87.8,62.6,43,30.07,10.0,SSW,25.3,33.4,N/A,,Clear,200,2013-07-25 19:55:00
3:15 PM,87.8,62.6,43,30.07,10.0,SSW,21.9,31.1,N/A,,Clear,200,2013-07-25 20:15:00
3:35 PM,87.8,62.6,43,30.07,10.0,SSW,23.0,33.4,N/A,,Clear,210,2013-07-25 20:35:00
3:55 PM,87.8,64.4,46,30.05,10.0,South,27.6,-,N/A,,Clear,190,2013-07-25 20:55:00
4:15 PM,87.8,64.4,46,30.03,10.0,South,29.9,34.5,N/A,,Clear,190,2013-07-25 21:15:00
4:35 PM,84.2,62.6,48,30.04,10.0,South,24.2,32.2,N/A,,Clear,190,2013-07-25 21:35:00
4:55 PM,82.4,62.6,51,30.02,10.0,SSW,21.9,32.2,N/A,,Clear,200,2013-07-25 21:55:00
5:15 PM,82.4,62.6,51,30.01,10.0,SSW,20.7,-,N/A,,Clear,200,2013-07-25 22:15:00
5:35 PM,82.4,60.8,48,30.02,10.0,South,20.7,25.3,N/A,,Clear,190,2013-07-25 22:35:00
5:55 PM,82.4,60.8,48,30.02,10.0,SSW,19.6,26.5,N/A,,Clear,200,2013-07-25 22:55:00
6:15 PM,80.6,60.8,51,30.01,10.0,South,20.7,25.3,N/A,,Clear,190,2013-07-25 23:15:00
6:35 PM,80.6,60.8,51,30.01,10.0,South,21.9,25.3,N/A,,Clear,190,2013-07-25 23:35:00
6:55 PM,80.6,60.8,51,30.00,10.0,South,20.7,29.9,N/A,,Partly Cloudy,190,2013-07-25 23:55:00
7:15 PM,80.6,62.6,54,30.01,10.0,South,19.6,-,N/A,,Clear,180,2013-07-26 00:15:00
7:35 PM,78.8,62.6,57,30.01,10.0,South,15.0,19.6,N/A,,Clear,170,2013-07-26 00:35:00
7:55 PM,78.8,62.6,57,29.99,10.0,South,16.1,23.0,N/A,,Clear,170,2013-07-26 00:55:00
8:15 PM,78.8,64.4,61,29.98,10.0,South,9.2,-,N/A,,Clear,180,2013-07-26 01:15:00
8:35 PM,78.8,64.4,61,29.98,10.0,South,11.5,-,N/A,,Clear,170,2013-07-26 01:35:00
8:55 PM,77.0,64.4,65,29.99,10.0,South,13.8,-,N/A,,Clear,180,2013-07-26 01:55:00
9:15 PM,78.8,64.4,61,29.99,10.0,South,18.4,-,N/A,,Partly Cloudy,190,2013-07-26 02:15:00
9:35 PM,77.0,66.2,69,30.02,10.0,SW,13.8,-,N/A,Thunderstorm,Mostly Cloudy,220,2013-07-26 02:35:00
9:55 PM,75.2,66.2,73,30.05,10.0,NW,10.4,-,N/A,Thunderstorm,Mostly Cloudy,320,2013-07-26 02:55:00
10:15 PM,73.4,64.4,73,30.08,7.0,West,13.8,19.6,0.19,Thunderstorm,Thunderstorm,260,2013-07-26 03:15:00
10:35 PM,71.6,64.4,78,30.05,10.0,SW,5.8,-,0.22,Thunderstorm,Mostly Cloudy,230,2013-07-26 03:35:00
10:55 PM,71.6,64.4,78,30.05,10.0,SW,8.1,-,0.22,,Partly Cloudy,220,2013-07-26 03:55:00
11:15 PM,71.6,64.4,78,30.05,10.0,WSW,6.9,-,N/A,,Clear,250,2013-07-26 04:15:00
11:35 PM,71.6,64.4,78,30.06,10.0,WSW,9.2,-,N/A,,Partly Cloudy,250,2013-07-26 04:35:00
11:55 PM,71.6,64.4,78,30.05,10.0,WSW,12.7,-,N/A,,Clear,250,2013-07-26 04:55:00